Location: Newark
(44.3248°N, 23.7839°E)
Time: 22:46:29
(UTC+00:00)

PCSat - Pass Details

Date: 14 April 2024
Orbit: 783 x 792 km, 67.1° (Epoch: 21 May)

Event Time Altitude Azimuth Distance (km) Brightness Sun altitude
Rises 21:39:59 0° 274° (W) 3,280 13.0 -34.9°
Reaches altitude 10° 21:43:53 10° 302° (WNW) 2,357 12.5 -35.0°
Maximum altitude 21:46:18 13° 329° (NNW) 2,162 12.5 -35.1°
Drops below altitude 10° 21:48:42 10° 356° (N) 2,364 12.8 -35.2°
Sets 21:52:39 0° 24° (NNE) 3,298 13.5 -35.3°
